Regional Weather Roundup
Issued by NWS

Home | Current Version | Previous Version | Text Only | Print | Product List | Glossary On
Versions: 1 2 3 4 5 6 7 8 9 10 11 12 13 14 15 16 17 18 19 20 21 22 23 24 25 26 27 28 29 30 31 32 33 34 35 36 37 38 39 40 41 42 43 44 45 46 47 48 49 50
561
ASUS42 KKEY 231910
RWRKEY

FLORIDA REGIONAL WEATHER ROUNDUP FOR THE FLORIDA KEYS
NATIONAL WEATHER SERVICE KEY WEST FLORIDA
200 PM EST MON JAN 23 2017

...SOUTH FLORIDA AND THE KEYS...

CITY           SKY/WX    TMP DP  RH WIND       PRES   REMARKS
FORT MYERS     LGT RAIN  68  61  78 NW20G31   29.62F
SW REGIONAL AP LGT RAIN  72  58  61 W18G30    29.63F
NAPLES         CLOUDY    70  64  81 W24G36    29.64F
MIAMI          MOSUNNY   79  56  45 W18G30    29.61F
WEST KENDALL   PTSUNNY   76  57  51 W30G38    29.62F
HOMESTEAD      MOSUNNY   78  59  52 W17G35    29.61F
MARATHON         N/A     75  65  70 W22G32    29.69F
BOCA CHICA NAS MOSUNNY   76  62  62 W25G36    29.70F
KEY WEST INTL  MOSUNNY   77  64  64 NW22G35   29.70F

...INTERNATIONAL WEATHER...

CITY           SKY/WX    TMP DP  RH WIND       PRES   REMARKS
NASSAU BAHAMAS MOSUNNY   79  66  65 W23       29.61F
CANCUN MEXICO  MOSUNNY   81  59  47 W17G29    29.89F
COZUMEL MEXICO SUNNY     82  61  47 NW17      29.88F

ADJACENT COASTAL WATERS...

STATION/POSITION TIME  SKY/WX   TEMP    WIND        PRES    WAVE
                                AIR SEA DIR/SP/G            HT/PER
                 (UTC)          (F)     (DEG/KT/KT) (MB)    (FT/S)
PULASKI SHOAL LI 1900            74     290/ 25/ 29 1006.0F
SAND KEY         1850            74     310/ 33/ 38 1006.4F
LONG KEY         1800            74 74  290/ 27/ 31 1005.3F
MOLASSES REEF    1800            74 74  290/ 32/ 36 1003.8F
FOWEY ROCKS      1800            74 74  270/ 29/ 33 1003.7F

$$




USA.gov is the U.S. government's official web portal to all federal, state and local government web resources and services.